Погода Резекне

Погода Резекне : погода сейчас, прогноз погоды и архив. Всё, что Вы хотите узнать о погоде Резекне!

Поиск расширенной информации на нашем сайте:

Другие новости

Новости СМИ2

Главная страница сайта

Новости сайта

03.07.2017

Напоминаем, что на нашем специализированном сайте Метеоцентр.Азия вы можете получить высокодетализированные автоматические прогнозы погоды по пунктам России, СНГ и мира в авиационном формате (включающие направление и скорость ветра, видимость, явления погоды, количество и форму облачности, нижнюю и верхнюю границу облачности).


Погода Резекне - сегодня

Время (UTC), дата Ветер
(°,м/с) 
Видим.   Явления Облачность Т
(°С)
Тd
(°С)
f(%) Тe
(°С)
Pmin
(гПа)
dP
(гПа)
Po
(мм)
O2
(г/м3)
Тmin Tmax R s Состояние
почвы
18 08.02.18 050 (СВ) 2-3  н/о    н/о 
-5.8 -6.7 93 -7  1021.7  -0.3  751  310           
21 08.02.18 000 (С) 1-2  н/о    н/о 
-5.3 -6.2 93 -5  1021.5  -0.1  751  309           
00 09.02.18 010 (С) 1-2  н/о    н/о 
-5.5 -6.2 95 -5  1021.7  751  310           
03 09.02.18 020 (С) 1-2  н/о    н/о 
-5.6 -6.3 95 -5  1021.7  751  310           
06 09.02.18 360 (С) 1-3  н/о    н/о 
-6 -6.6 95 -6  1021.9  751  310           
09 09.02.18 040 (СВ) 1-2  н/о    н/о 
-5.3 -6.2 93 -5  1022.4  0.5  752  310           
12 09.02.18 030 (СВ) 3-4  н/о    н/о 
-4.7 -5.9 91 -7  1021.8  -0.5  751  309           
15 09.02.18 040 (СВ) 3-4  н/о    н/о 
-4.9 -6.1 91 -7  1021.9  751  309           
18 09.02.18 030 (СВ) 3-5  н/о    н/о 
-5.6 -6.3 95 -8  1022  751  310           
09 22.02.18 110 (В) 1-1  н/о    н/о 
-14.8 -17.1 83 -15  1032.5  758  325           
21 23.04.18 140 (ЮВ) 2-3  н/о    н/о 
+7.5 +0.6 62 +7  1010.7  -1.2  744  291           
06 25.04.18 240 (ЮЗ) 6-9  н/о    н/о 
+8.9 +5.3 78 +7  1002.7  0.2  738  287           
18 29.04.18 140 (ЮВ) 1-1  н/о    н/о 
+15.3 +4.5 48 +17  1012.1  -0.4  745  284           
21 06.05.18 360 (С) 1-2  н/о    н/о 
+13.6 +3.7 51 +15  1024.3  754  289           
15 21.05.18 070 (В) 3-5  н/о    н/о 
+21.2 +7.1 40 +21  1026  756  281           
15 06.06.18 340 (С) 3-6  н/о    н/о 
+11.9 +1.2 48 +12  1018.6  0.6  750  289           
15 14.06.18 130 (ЮВ) 2-3  н/о    н/о 
+20.9 +7.6 42 +21  1012.8  746  278           
12 04.07.18 320 (СЗ) 3-5  н/о    н/о 
+18.4 +11.4 64 +22  1006.6  0.5  741  278           
00 24.07.18 070 (В) 2-2  н/о    н/о 
+18 +17.8 99 +33  1012.3  0.1  745  278           
15 05.09.18 060 (СВ) 1-2  н/о    н/о 
+20.4 +17.8 85 +34  1018.4  0.1  750  277           
21 06.09.18 080 (В) 2-3  н/о    н/о 
+17.3 +11.1 67 +21  1017.7  0.2  749  282           
15 07.09.18 110 (В) 2-4  н/о    н/о 
+24.1 +9.4 39 +25  1017.4  -0.3  749  276           
15 10.09.18 090 (В) 3-5  н/о    н/о 
+21.2 +13.1 60 +27  1021.3  -0.4  752  279           
18 10.09.18 060 (СВ) 2-4  н/о    н/о 
+16 +13.7 86 +23  1022.1  752  284           
00 14.09.18 250 (З) 1-2  н/о    н/о 
+8.2 +8.1 99 +9  1019  0.3  750  292           
Время (UTC), дата Ветер
(°,м/с) 
Видим.   Явления Облачность Т
(°С)
Тd
(°С)
f(%) Тe
(°С)
Pmin
(гПа)
dP
(гПа)
Po
(мм)
O2
(г/м3)
Тmin Tmax R s Состояние
почвы

Для получения пояснительной информации подведите курсор к названию столбца.

ПОГОДА Резекне - архив

Всё, что Вы хотите узнать о погоде Резекне - удобно и подробно!

Выберите нужную дату (начиная с 1 января 2015* года) и нажмите кнопку "Найти".
Будут отображены архивные сводки погоды по пункту Резекне, начиная с указанной даты.


Отображать данные в формате CSV (для использования в таблицах Excel)


Внимание! Наш архив погоды предназначен исключительно для личного некоммерческого использования в познавательных целях. Если Вам необходимы официальные справки о состоянии погоды (для производственных, юридических, коммерческих и т.п. целей), обращайтесь в органы Росгидромета.

*Примечание: данная дата относится к архиву по метеостанциям СССР (Россия, СНГ, Балтия).
Архив по метеостанциям Зарубежной Европы и Азии (кроме Китая) хранится 10 дней, по другим регионам земного шара (Китай, Африка, Америка, Австралия, Океания) - 1 день.

Резекне - район местоположения метеостанции


Название, широта, долгота, высота метеостанции:
Резекне 56.5°ш. 27.3°д. 157 м над ур. моря [Латвия]

Дополнительная информация

В oтличие oт бoльшинства пoгoдных сайтoв мы публикуем пoдрoбную метеoинфoрмацию в детальнoм прoфессиoнальнoм фoрмате.

Характеристики температуры и влажнoсти вoздуха измеряются на высoте 2 м в тени вдали oт зданий и деревьев.
Скoрoсть ветра измеряется на высoте 10 м (на урoвне рoста челoвека скoрoсть ветра ниже в 1.5-2 раза). Если метеoстанция нахoдится в гoрoде или в лесу, тo скoрoсть ветра занижена на 2-4 м/с пo сравнению с oткрытым местoм. Скoрoсть ветра над акватoриями крупных рек и oзёр, а также на вершинах хoлмoв на 2-5 м/с выше, чем в oбычных услoвиях.
Атмoсфернoе давление в разных тoчках местнoсти мoжет значительнo oтличаться oт давления на метеoстанции, в зависимoсти oт услoвий рельефа (при пoдъёме на 10 м давление пoнижается примернo на 1 мм рт.ст.).